When you browse on this site, cookies collect data to enhance your experience and personalize the content and advertising you see.
Visit our Privacy Policy to learn more. By continuing to use the site, you agree to this use of cookies and data.
  • In Lithuania
  • List of Countries
  • For 7 days
  • Water Temperature
  • Weather Map
  • Weather Widgets
  • user-avatar
    Login

    Hourly Weather Chichester

    Today, 24 February, Monday

    Time Temperature Precipitation Wind Pressure Humidity
    00:00 +8°C° 0 mm 2 mps 766 mmHg 83%
    01:00 +8°C° 0.2 mm 3 mps 765 mmHg 85%
    02:00 +7°C° 0.2 mm 5 mps 764 mmHg 88%
    03:00 +7°C° 0.2 mm 6 mps 763 mmHg 91%
    04:00 +7°C° 0.2 mm 8 mps 762 mmHg 92%
    05:00 +8°C° 0.2 mm 9 mps 761 mmHg 92%
    06:00 +9°C° 0.2 mm 10 mps 759 mmHg 93%
    07:00 +9°C° 0 mm 11 mps 759 mmHg 92%
    08:00 +8°C° 0 mm 12 mps 758 mmHg 91%
    09:00 +8°C° 0 mm 13 mps 758 mmHg 89%
    10:00 +9°C° 0.1 mm 13 mps 757 mmHg 89%
    11:00 +9°C° 0.1 mm 13 mps 757 mmHg 88%
    12:00 +9°C° 0.1 mm 14 mps 756 mmHg 87%
    13:00 +9°C° 0.7 mm 14 mps 755 mmHg 88%
    14:00 +9°C° 0.7 mm 13 mps 754 mmHg 90%
    15:00 +9°C° 0.7 mm 13 mps 754 mmHg 91%
    16:00 +9°C° 0.1 mm 12 mps 753 mmHg 88%
    17:00 +8°C° 0.1 mm 11 mps 753 mmHg 86%
    18:00 +8°C° 0.1 mm 10 mps 753 mmHg 84%
    19:00 +7°C° 0 mm 9 mps 753 mmHg 83%
    20:00 +7°C° 0 mm 9 mps 754 mmHg 83%
    21:00 +6°C° 0 mm 8 mps 754 mmHg 82%
    22:00 +5°C° 0 mm 8 mps 754 mmHg 81%
    23:00 +5°C° 0 mm 7 mps 754 mmHg 80%

    Tomorrow, 25 February, Tuesday

    Time Temperature Precipitation Wind Pressure Humidity
    00:00 +4°C° 0 mm 7 mps 754 mmHg 79%
    01:00 +4°C° 0 mm 7 mps 754 mmHg 79%
    02:00 +4°C° 0 mm 7 mps 753 mmHg 79%
    03:00 +4°C° 0 mm 7 mps 753 mmHg 79%
    04:00 +3°C° 0 mm 7 mps 753 mmHg 80%
    05:00 +3°C° 0 mm 7 mps 753 mmHg 81%
    06:00 +2°C° 0 mm 7 mps 753 mmHg 81%
    07:00 +2°C° 0.1 mm 8 mps 752 mmHg 81%
    08:00 +2°C° 0.1 mm 8 mps 752 mmHg 81%
    09:00 +3°C° 0.1 mm 9 mps 751 mmHg 81%
    10:00 +5°C° 0 mm 9 mps 751 mmHg 77%
    11:00 +5°C° 0 mm 8 mps 751 mmHg 73%
    12:00 +6°C° 0 mm 8 mps 750 mmHg 69%
    13:00 +5°C° 0.3 mm 8 mps 749 mmHg 70%
    14:00 +5°C° 0.3 mm 9 mps 748 mmHg 72%
    15:00 +5°C° 0.3 mm 10 mps 747 mmHg 73%
    16:00 +3°C° 0.4 mm 10 mps 747 mmHg 75%
    17:00 +2°C° 0.4 mm 10 mps 746 mmHg 76%
    18:00 +1°C° 0.4 mm 11 mps 746 mmHg 78%
    19:00 0°C° 0 mm 10 mps 746 mmHg 77%
    20:00 0°C° 0 mm 10 mps 746 mmHg 77%
    21:00 0°C° 0 mm 10 mps 746 mmHg 76%
    22:00 -2°C° 0 mm 10 mps 746 mmHg 76%
    23:00 -2°C° 0 mm 10 mps 747 mmHg 75%

    Day after tomorrow, 26 February, Wednesday

    Time Temperature Precipitation Wind Pressure Humidity
    00:00 -1°C° 0 mm 9 mps 747 mmHg 75%
    01:00 -2°C° 0 mm 10 mps 747 mmHg 76%
    02:00 -2°C° 0 mm 10 mps 747 mmHg 77%
    03:00 -2°C° 0 mm 10 mps 748 mmHg 78%
    04:00 -2°C° 0 mm 10 mps 748 mmHg 79%
    05:00 -1°C° 0 mm 9 mps 749 mmHg 80%
    06:00 -1°C° 0 mm 9 mps 749 mmHg 82%
    07:00 0°C° 0 mm 10 mps 750 mmHg 79%
    08:00 0°C° 0 mm 10 mps 751 mmHg 76%
    09:00 +1°C° 0 mm 11 mps 752 mmHg 73%
    10:00 +2°C° 0 mm 11 mps 753 mmHg 69%
    11:00 +3°C° 0 mm 11 mps 754 mmHg 64%
    12:00 +3°C° 0 mm 10 mps 755 mmHg 60%
    13:00 +3°C° 0 mm 10 mps 755 mmHg 59%
    14:00 +3°C° 0 mm 10 mps 756 mmHg 58%
    15:00 +3°C° 0 mm 10 mps 756 mmHg 57%
    16:00 +2°C° 0 mm 9 mps 756 mmHg 62%
    17:00 +2°C° 0 mm 8 mps 756 mmHg 67%
    18:00 +2°C° 0 mm 7 mps 756 mmHg 72%
    19:00 +1°C° 0 mm 6 mps 756 mmHg 74%
    20:00 +1°C° 0 mm 6 mps 757 mmHg 76%
    21:00 +1°C° 0 mm 6 mps 757 mmHg 79%
    22:00 +1°C° 0 mm 5 mps 756 mmHg 78%
    23:00 +1°C° 0 mm 5 mps 756 mmHg 77%

    27 February, Thursday

    Time Temperature Precipitation Wind Pressure Humidity
    00:00 +3°C° 0 mm 4 mps 756 mmHg 77%
    01:00 +3°C° 0.1 mm 4 mps 755 mmHg 80%
    02:00 +3°C° 0.1 mm 4 mps 753 mmHg 83%
    03:00 +3°C° 0.1 mm 4 mps 752 mmHg 86%
    04:00 +2°C° 1.7 mm 6 mps 751 mmHg 89%
    05:00 +1°C° 1.7 mm 8 mps 749 mmHg 93%
    06:00 +1°C° 1.7 mm 10 mps 747 mmHg 96%
    07:00 +2°C° 2.1 mm 9 mps 746 mmHg 96%
    08:00 +4°C° 2.1 mm 8 mps 745 mmHg 97%
    09:00 +5°C° 2.1 mm 6 mps 743 mmHg 97%
    10:00 +6°C° 0.2 mm 7 mps 743 mmHg 94%
    11:00 +8°C° 0.2 mm 7 mps 743 mmHg 91%
    12:00 +9°C° 0.2 mm 8 mps 743 mmHg 88%
    13:00 +7°C° 0 mm 8 mps 744 mmHg 87%
    14:00 +6°C° 0 mm 8 mps 744 mmHg 86%
    15:00 +5°C° 0 mm 8 mps 745 mmHg 85%
    16:00 +5°C° 0 mm 8 mps 746 mmHg 86%
    17:00 +4°C° 0 mm 7 mps 748 mmHg 86%
    18:00 +3°C° 0 mm 7 mps 749 mmHg 87%
    19:00 +3°C° 0 mm 6 mps 750 mmHg 86%
    20:00 +3°C° 0 mm 6 mps 751 mmHg 85%
    21:00 +2°C° 0 mm 5 mps 752 mmHg 84%
    22:00 +3°C° 0 mm 4 mps 753 mmHg 85%
    23:00 +3°C° 0 mm 4 mps 754 mmHg 86%

    28 February, Friday

    Time Temperature Precipitation Wind Pressure Humidity
    00:00 +2°C° 0 mm 3 mps 754 mmHg 87%
    01:00 +3°C° 0 mm 2 mps 754 mmHg 88%
    02:00 +2°C° 0 mm 2 mps 755 mmHg 90%
    03:00 +3°C° 0 mm 1 mps 755 mmHg 91%
    04:00 +3°C° 0 mm 1 mps 755 mmHg 90%
    05:00 +3°C° 0 mm 1 mps 754 mmHg 89%
    06:00 +3°C° 0 mm 1 mps 754 mmHg 88%
    07:00 +3°C° 0 mm 2 mps 754 mmHg 86%
    08:00 +3°C° 0 mm 3 mps 754 mmHg 84%
    09:00 +4°C° 0 mm 4 mps 753 mmHg 82%
    10:00 +5°C° 0.2 mm 4 mps 753 mmHg 82%
    11:00 +5°C° 0.2 mm 3 mps 752 mmHg 83%
    12:00 +6°C° 0.2 mm 2 mps 751 mmHg 84%
    13:00 +6°C° 0.1 mm 2 mps 751 mmHg 84%
    14:00 +7°C° 0.1 mm 2 mps 750 mmHg 84%
    15:00 +7°C° 0.1 mm 2 mps 749 mmHg 85%
    16:00 +7°C° 0 mm 3 mps 749 mmHg 87%
    17:00 +5°C° 0 mm 3 mps 749 mmHg 90%
    18:00 +5°C° 0 mm 3 mps 748 mmHg 93%
    19:00 +6°C° 0 mm 4 mps 748 mmHg 93%
    20:00 +6°C° 0 mm 5 mps 748 mmHg 93%
    21:00 +6°C° 0 mm 5 mps 748 mmHg 94%
    22:00 +5°C° 0 mm 6 mps 747 mmHg 93%
    23:00 +6°C° 0 mm 7 mps 746 mmHg 92%

    29 February, Saturday

    Time Temperature Precipitation Wind Pressure Humidity
    00:00 +6°C° 0 mm 8 mps 745 mmHg 91%
    01:00 +6°C° 1.4 mm 9 mps 743 mmHg 92%
    02:00 +6°C° 1.4 mm 9 mps 742 mmHg 92%
    03:00 +6°C° 1.4 mm 10 mps 741 mmHg 93%
    04:00 +5°C° 1.4 mm 9 mps 741 mmHg 88%
    05:00 +2°C° 1.4 mm 8 mps 741 mmHg 84%
    06:00 0°C° 1.4 mm 7 mps 742 mmHg 79%
    07:00 +1°C° 0 mm 8 mps 742 mmHg 76%
    08:00 +1°C° 0 mm 8 mps 743 mmHg 73%
    09:00 +1°C° 0 mm 9 mps 743 mmHg 70%
    10:00 +2°C° 0 mm 9 mps 743 mmHg 67%
    11:00 +3°C° 0 mm 9 mps 743 mmHg 64%
    12:00 +3°C° 0 mm 9 mps 742 mmHg 61%
    13:00 +3°C° 0.1 mm 9 mps 742 mmHg 62%
    14:00 +3°C° 0.1 mm 9 mps 742 mmHg 63%
    15:00 +3°C° 0.1 mm 9 mps 742 mmHg 64%
    16:00 +2°C° 0.1 mm 9 mps 742 mmHg 67%
    17:00 +1°C° 0.1 mm 8 mps 743 mmHg 70%
    18:00 0°C° 0.1 mm 8 mps 743 mmHg 74%
    19:00 0°C° 0 mm 8 mps 744 mmHg 73%
    20:00 0°C° 0 mm 7 mps 744 mmHg 73%
    21:00 0°C° 0 mm 7 mps 745 mmHg 72%
    22:00 0°C° 0 mm 7 mps 745 mmHg 74%
    23:00 -1°C° 0 mm 8 mps 746 mmHg 76%
    Show more